Hourly Data Report for March 25, 2003

TORONTO CITY
ONTARIO

43°40'00.000" N
79°24'00.000" W
112.50 m
6158355
71508
XTO

Download Data

Hourly Data (March 2003)
Hourly Data Report for March 25, 2003
TIME
LST
Temp Definition
°C
Dew Point Definition
°C
Rel Hum Definition
%
Precip. Amount Definition
mm

Wind Dir Definition
10's deg

Wind Spd Definition
km/h
Visibility Definition
km
Stn Press Definition
kPa
Hmdx Definition


Wind Chill Definition


Weather Definition


00:00 7.2 3.5 77   LegendMM LegendMM LegendMM 99.57     LegendNANA
01:00 7.5 3.6 76   LegendMM LegendMM LegendMM 99.50     LegendNANA
02:00 8.4 3.7 72   LegendMM LegendMM LegendMM 99.46     LegendNANA
03:00 8.4 4.1 74   LegendMM LegendMM LegendMM 99.42     LegendNANA
04:00 7.8 3.8 76   LegendMM LegendMM LegendMM 99.41     LegendNANA
05:00 8.6 4.4 75   LegendMM LegendMM LegendMM 99.43     LegendNANA
06:00 8.2 4.4 77   LegendMM LegendMM LegendMM 99.41     LegendNANA
07:00 8.4 4.8 78   LegendMM LegendMM LegendMM 99.46     LegendNANA
08:00 10.6 5.8 72   LegendMM LegendMM LegendMM 99.48     LegendNANA
09:00 11.5 6.4 71   LegendMM LegendMM LegendMM 99.45     LegendNANA
10:00 12.2 6.3 67   LegendMM LegendMM LegendMM 99.42     LegendNANA
11:00 10.4 8.3 87   LegendMM LegendMM LegendMM 99.48     LegendNANA
12:00 11.2 8.3 82   LegendMM LegendMM LegendMM 99.50     LegendNANA
13:00 11.2 8.1 81   LegendMM LegendMM LegendMM 99.51     LegendNANA
14:00 11.8 8.8 82   LegendMM LegendMM LegendMM 99.49     LegendNANA
15:00 12.4 7.3 71   LegendMM LegendMM LegendMM 99.48     LegendNANA
16:00 12.1 6.2 67   LegendMM LegendMM LegendMM 99.49     LegendNANA
17:00 11.9 5.8 66   LegendMM LegendMM LegendMM 99.50     LegendNANA
18:00 11.1 5.4 68   LegendMM LegendMM LegendMM 99.54     LegendNANA
19:00 12.1 2.0 50   LegendMM LegendMM LegendMM 99.59     LegendNANA
20:00 11.8 1.7 50   LegendMM LegendMM LegendMM 99.62     LegendNANA
21:00 9.8 2.2 59   LegendMM LegendMM LegendMM 99.67     LegendNANA
22:00 9.1 2.4 63   LegendMM LegendMM LegendMM 99.70     LegendNANA
23:00 8.3 1.5 62   LegendMM LegendMM LegendMM 99.74     LegendNANA

Notes on Data Quality.

Legend

  • E = Estimated
  • M = Missing
  • NA = Not Available*
  • [empty] = Indicates an unobserved value
Date modified: